Regional Weather Roundup
Issued by NWS

Home | Current Version | Previous Version | Text Only | Print | Product List | Glossary Off
Versions: 1 2 3 4 5 6 7 8 9 10 11 12 13 14 15 16 17 18 19 20 21 22 23 24 25 26 27 28 29 30 31 32 33 34 35 36 37 38 39 40 41 42 43 44 45 46 47 48 49 50

000
ASUS43 KFSD 012210
RWRSD

WEATHER ROUNDUP FOR SOUTH DAKOTA
NATIONAL WEATHER SERVICE SIOUX FALLS SD
500 PM CDT WED OCT 01 2014

NOTE: "FAIR" INDICATES FEW OR NO CLOUDS BELOW 12,000 FEET WITH NO
SIGNIFICANT WEATHER AND/OR OBSTRUCTIONS TO VISIBILITY.


SDZ001>005-009-010-012>017-012300-
NORTHWEST AND NORTH CENTRAL SOUTH DAKOTA

CITY           SKY/WX    TMP DP  RH WIND       PRES   REMARKS
BUFFALO          N/A     54  42  64 W21       29.81R
FAITH            N/A     55  45  68 NW15      29.85R
MOBRIDGE       CLOUDY    62  49  62 NW15G23   29.77R
$$

SDZ012>016-024>037-041>051-057-063-072>074-012300-
SOUTHWEST AND SOUTH CENTRAL SOUTH DAKOTA

CITY           SKY/WX    TMP DP  RH WIND       PRES   REMARKS
RAPID CTY ARPT CLOUDY    53  44  71 N15       29.89R
PIERRE         PTSUNNY   65  48  54 NW22      29.78R
CUSTER         CLOUDY    47  38  71 N7        29.91R
ELLSWORTH AFB  CLOUDY    54  43  66 N15       29.89
PHILIP         CLOUDY    60  46  59 NW16      29.85R
PINE RIDGE     PTSUNNY   58  48  69 NE12      29.86R
WINNER         MOCLDY    71  47  42 NW15      29.79R
$$

SDZ004>011-016>023-039-040-012300-
NORTHEAST SOUTH DAKOTA

CITY           SKY/WX    TMP DP  RH WIND       PRES   REMARKS
ABERDEEN       PTSUNNY   68  50  52 NW16G25   29.74R
WATERTOWN      MOSUNNY   69  49  48 W13       29.73R
SISSETON         N/A     68  51  54 NW15      29.70R
$$

SDZ017-020-022-023-036>040-048>070-012300-
SOUTHEAST SOUTH DAKOTA

CITY           SKY/WX    TMP DP  RH WIND       PRES   REMARKS
SIOUX FALLS    PTSUNNY   74  53  48 NW10      29.73R
HURON          PTSUNNY   72  47  40 NW12      29.73R
CHAMBERLAIN    PTSUNNY   71  48  43 NW9       29.76S
MITCHELL       MOSUNNY   75  49  39 W10       29.74R
YANKTON        MOSUNNY   73  54  49 NW8       29.73R
$$

ABBREVIATIONS USED IN REMARKS
   TC - TEMPERATURE IN CELSIUS
  WCI - WIND CHILL INDEX
   HX - HEAT INDEX
  VSB - VISIBILITY




USA.gov is the U.S. government's official web portal to all federal, state and local government web resources and services.